Location: Bothwell
(41.7170°N, 112.2589°W)
Time: 13:50:42
(UTC+00:00)

Vanguard 2 - Pass Details

Date: 12 May 2026
Orbit: 553 x 2894 km, 32.9° (Epoch: 8 June)

Event Time Altitude Azimuth Distance (km) Brightness Sun altitude
Rises 07:32:35 0° 198° (SSW) 6,320 - -30.1°
Reaches altitude 10° 07:37:56 10° 186° (S) 5,530 - -30.0°
Exits shadow 07:49:46 24° 142° (SE) 4,624 11.0 -29.8°
Maximum altitude 07:49:58 24° 141° (SE) 4,623 11.1 -29.8°
Drops below altitude 10° 08:01:40 10° 97° (E) 5,414 11.8 -29.5°
Sets 08:06:43 0° 85° (E) 6,169 12.3 -29.4°
